Online Auction from Winery in Madison, Indiana

Lot #0194: GAI Model 404 Semi-Auto Corker

Bidding is closed.
High Bid:$1,000.00
NA
Bidding Ended: Tue, Jun 27  10:23:35 am PT
High Bidder: philmb
Bid Increment: $10.00
Starting Bid: $5.00
Item Location: Madison, IN 47250
Item has been viewed 454 times.

GAI Model 404 Semi-Auto Corker

  • Height: 73.5”
  • Feed Voltage: 220V
  • Auxiliary Voltage: 24V
  • Frequency: 60Hz
  • Power: 1.3Kw
  • Current: 5.6A
  • 3 Phase
Bid Date Bid Amount Bidder
Jun 27, 2023 - 10:21:35 AM $1,000.00 iphilmb
Jun 27, 2023 - 10:21:35 AM $990.00 iNewbyfarm
Jun 27, 2023 - 10:19:52 AM $980.00 iphilmb
Jun 27, 2023 - 10:19:52 AM $970.00 iNewbyfarm
Jun 27, 2023 - 10:18:37 AM $960.00 iphilmb
Jun 27, 2023 - 10:18:37 AM $950.00 iNewbyfarm
Jun 27, 2023 - 10:17:27 AM $940.00 iphilmb
Jun 27, 2023 - 10:17:27 AM $930.00 iNewbyfarm
Jun 27, 2023 - 10:16:05 AM $910.00 iphilmb
Jun 27, 2023 - 10:16:05 AM $900.00 iNewbyfarm
Jun 27, 2023 - 10:14:20 AM $860.00 iphilmb
Jun 27, 2023 - 10:14:20 AM $850.00 iNewbyfarm
Jun 27, 2023 - 10:12:53 AM $810.00 iphilmb
Jun 27, 2023 - 10:12:53 AM $800.00 iNewbyfarm
Jun 27, 2023 - 10:12:34 AM $760.00 iphilmb
Jun 27, 2023 - 10:12:34 AM $750.00 iNewbyfarm
Jun 27, 2023 - 10:11:52 AM $710.00 iphilmb
Jun 27, 2023 - 10:11:52 AM $700.00 iNewbyfarm
Jun 27, 2023 - 10:11:46 AM $660.00 iNewbyfarm
Jun 27, 2023 - 10:11:46 AM $650.00 iphilmb
Jun 27, 2023 - 10:11:32 AM $610.00 iphilmb
Jun 27, 2023 - 10:11:32 AM $600.00 iNewbyfarm
Jun 27, 2023 - 10:10:04 AM $510.00 iphilmb
Jun 27, 2023 - 10:10:04 AM $500.00 iNewbyfarm
Jun 27, 2023 - 10:09:48 AM $460.00 iNewbyfarm
Jun 27, 2023 - 10:09:40 AM $450.00 iphilmb
Jun 27, 2023 - 10:09:41 AM $450.00 iNewbyfarm
Jun 27, 2023 - 10:08:01 AM $430.00 iphilmb
Jun 27, 2023 - 10:08:01 AM $420.00 iwinecork
Jun 27, 2023 - 10:05:11 AM $391.00 iphilmb
Jun 27, 2023 - 10:05:11 AM $381.00 idhedinge
Jun 27, 2023 - 10:00:54 AM $360.00 idhedinge
Jun 27, 2023 - 9:56:15 AM $350.00 iNewbyfarm
Jun 27, 2023 - 9:56:15 AM $345.00 iwinecork
Jun 27, 2023 - 9:51:52 AM $320.00 iNewbyfarm
Jun 27, 2023 - 9:51:52 AM $310.00 iphilmb
Jun 27, 2023 - 5:30:56 AM $300.00 iNewbyfarm
Jun 27, 2023 - 5:30:56 AM $290.00 idhedinge
Jun 26, 2023 - 12:39:04 PM $280.00 iNewbyfarm
Jun 26, 2023 - 12:39:04 PM $270.00 iwinecork
Jun 26, 2023 - 12:38:55 PM $260.00 iNewbyfarm
Jun 26, 2023 - 12:38:23 PM $250.00 iwbest
Jun 26, 2023 - 12:38:23 PM $240.00 iNewbyfarm
Jun 26, 2023 - 12:38:12 PM $230.00 iwbest
Jun 26, 2023 - 12:38:12 PM $220.00 iNewbyfarm
Jun 24, 2023 - 11:32:55 AM $210.00 iwbest
Jun 24, 2023 - 11:32:42 AM $200.00 iNewbyfarm
Jun 24, 2023 - 11:32:43 AM $200.00 iwbest
Jun 24, 2023 - 9:36:54 AM $105.00 iNewbyfarm
Jun 24, 2023 - 9:36:54 AM $100.00 iwbest
Jun 23, 2023 - 10:20:26 AM $60.00 iwbest
Jun 23, 2023 - 10:20:26 AM $55.00 iphilmb
Jun 23, 2023 - 8:28:26 AM $50.00 iwbest
Jun 23, 2023 - 8:28:26 AM $45.00 idhedinge
Jun 23, 2023 - 5:30:20 AM $35.00 idhedinge
Jun 21, 2023 - 9:42:27 AM $30.00 ishawnoel
Jun 21, 2023 - 9:42:27 AM $25.88 iWinery
Jun 21, 2023 - 9:42:12 AM $25.00 iWinery
Jun 21, 2023 - 9:42:12 AM $20.00 ishawnoel
Jun 20, 2023 - 8:30:52 PM $15.00 iWinery
Jun 19, 2023 - 11:47:27 AM $10.00 iphilmb
Jun 19, 2023 - 7:03:25 AM $5.00 iJamesadavids
Click on any picture to see a larger image.